Deelen, Netherlands

6:55 PM CET on February 24, 2017 (GMT +0100)
Deelen Air Base

Weather History for EHDL - February, 2014

Change the Weather History Date:

Tuesday, February 18, 2014

  Actual Average Record
Temperature  
Mean Temperature 42 °F -  
Max Temperature 46 °F 46 °F 51 °F (1998)
Min Temperature 38 °F 34 °F 19 °F (2003)
Degree Days  
Heating Degree Days 23    
Moisture  
Dew Point 37 °F    
Average Humidity 79    
Maximum Humidity 93    
Minimum Humidity 60    
Precipitation  
Precipitation 0.04 in - - ()
Sea Level Pressure  
Sea Level Pressure 29.89 in    
Wind  
Wind Speed 6 mph ()    
Max Wind Speed 12 mph    
Max Gust Speed -    
Visibility 9.3 miles    
Events      
Averages and records for this station are not official NWS values.
T = Trace of Precipitation, MM = Missing Value Source: Averaged Metar Reports

Daily Weather History Graph

Daily Weather History Graph

Search for Another Location

Airport or City:

Trip Planner

Search our weather history database for the weather conditions in past years. The results will help you decide how hot, cold, wet, or windy it might be!

Date:

Astronomy

Feb. 18, 2014 Rise Set
Actual Time 7:45 AM CET 5:55 PM CET
Civil Twilight 7:11 AM CET 6:30 PM CET
Nautical Twilight 6:31 AM CET 7:09 PM CET
Astronomical Twilight 5:52 AM CET 7:48 PM CET
Moon 10:06 PM CET (2/18) 8:40 AM CET (2/18)
Length of Visible Light 11h 19m
Length of Day
10h 09m
Waning Gibbous, 89% of the Moon is Illuminated
Feb 18
Waning Gibbous
Feb 22
Last Quarter
Mar 1
New
Mar 8
First Quarter
Mar 16
Full

Hourly Weather History & Observations

Time (CET) Temp. Windchill Dew Point Humidity Pressure Visibility Wind Dir Wind Speed Gust Speed Precip Events Conditions
12:00 AM 41 °F - 38 °F 83% 29.99 in 10 mi SE 4.5 mph - -   Overcast
12:25 AM 41.0 °F 38.0 °F 37.4 °F 87% 29.98 in 6.2 mi SE 4.6 mph - N/A   Overcast
12:55 AM 41.0 °F 37.1 °F 37.4 °F 87% 29.98 in 6.2 mi SE 5.8 mph - N/A   Overcast
1:00 AM 40 °F - 37 °F 84% 29.99 in 9 mi SSE 4.5 mph - -   Partly Cloudy
1:25 AM 39.2 °F 35.0 °F 37.4 °F 93% 29.98 in 6.2 mi SSE 5.8 mph - N/A   Scattered Clouds
1:55 AM 39.2 °F 35.9 °F 35.6 °F 87% 29.98 in 6.2 mi SE 4.6 mph - N/A   Mostly Cloudy
2:00 AM 39 °F - 36 °F 85% 29.99 in 16 mi ESE 4.5 mph - -   Overcast
2:25 AM 39.2 °F 35.0 °F 35.6 °F 87% 29.98 in 6.2 mi SE 5.8 mph - N/A   Partly Cloudy
2:55 AM 39.2 °F 35.0 °F 37.4 °F 93% 29.95 in 6.2 mi SE 5.8 mph - N/A   Overcast
3:00 AM 40 °F - 36 °F 82% 29.98 in 11 mi SSE 4.5 mph - -   Overcast
3:25 AM 41.0 °F 37.1 °F 35.6 °F 81% 29.95 in 6.2 mi SSE 5.8 mph - N/A   Overcast
3:55 AM 39.2 °F 34.2 °F 35.6 °F 87% 29.95 in 6.2 mi SE 6.9 mph - N/A   Overcast
4:00 AM 40 °F - 36 °F 82% 29.96 in 19 mi SSE 6.7 mph - -   Overcast
4:25 AM 39.2 °F 35.0 °F 35.6 °F 87% 29.95 in 6.2 mi SSE 5.8 mph - N/A   Overcast
4:55 AM 39.2 °F 34.2 °F 35.6 °F 87% 29.92 in 6.2 mi SSE 6.9 mph - N/A   Overcast
5:00 AM 39 °F - 36 °F 84% 29.95 in 18 mi SSE 6.7 mph - -   Overcast
5:25 AM 39.2 °F 34.2 °F 35.6 °F 87% 29.95 in 6.2 mi SSE 6.9 mph - N/A   Overcast
5:55 AM 39.2 °F 34.2 °F 35.6 °F 87% 29.92 in 6.2 mi SSE 6.9 mph - N/A   Overcast
6:00 AM 39 °F - 36 °F 83% 29.94 in 17 mi SSE 8.9 mph - -   Mostly Cloudy
6:25 AM 39.2 °F 33.6 °F 35.6 °F 87% 29.92 in 6.2 mi SSE 8.1 mph - N/A   Overcast
6:55 AM 39.2 °F 33.6 °F 35.6 °F 87% 29.92 in - SSE 8.1 mph - N/A   Overcast
7:00 AM 40 °F - 36 °F 78% 29.94 in 14 mi SSE 6.7 mph - -   Partly Cloudy
7:25 AM 39.2 °F 33.6 °F 35.6 °F 87% 29.92 in - SE 8.1 mph - N/A   Partly Cloudy
7:55 AM 39.2 °F 34.2 °F 35.6 °F 87% 29.92 in - SE 6.9 mph - N/A   Overcast
8:00 AM 39 °F - 36 °F 83% 29.93 in 13 mi SE 6.7 mph - -   Overcast
8:25 AM 39.2 °F 34.2 °F 35.6 °F 87% 29.92 in - SE 6.9 mph - N/A   Overcast
8:55 AM 39.2 °F 34.2 °F 35.6 °F 87% 29.92 in - SE 6.9 mph - N/A   Overcast
9:00 AM 40 °F - 36 °F 78% 29.93 in 17 mi SSE 6.7 mph - -   Overcast
9:25 AM 41.0 °F 35.8 °F 35.6 °F 81% 29.92 in 6.2 mi SSE 8.1 mph - N/A   Overcast
9:29 AM 41.0 °F 36.4 °F 35.6 °F 81% 29.92 in 6.2 mi SSE 6.9 mph - N/A   Overcast
9:55 AM 41.0 °F 35.8 °F 35.6 °F 81% 29.92 in 6.2 mi SSE 8.1 mph - N/A   Overcast
10:00 AM 41 °F - 36 °F 76% 29.93 in 19 mi SSE 6.7 mph - -   Overcast
10:25 AM 42.8 °F 38.6 °F 35.6 °F 76% 29.92 in 6.2 mi SSE 6.9 mph - N/A   Overcast
10:55 AM 42.8 °F 39.3 °F 37.4 °F 81% 29.89 in 6.2 mi South 5.8 mph - N/A   Overcast
11:00 AM 43 °F - 37 °F 72% 29.92 in 19 mi South 4.5 mph - -   Overcast
11:25 AM 44.6 °F 39.7 °F 37.4 °F 76% 29.89 in - South 9.2 mph - N/A   Overcast
11:48 AM 44.6 °F 40.2 °F 35.6 °F 71% 29.89 in - South 8.1 mph - N/A   Overcast
11:55 AM 44.6 °F 40.2 °F 37.4 °F 76% 29.89 in - South 8.1 mph - N/A   Overcast
12:00 PM 45 °F - 37 °F 64% 29.91 in - South 8.9 mph - -   Overcast
12:25 PM 46.4 °F 41.5 °F 37.4 °F 71% 29.89 in - South 10.4 mph - N/A   Overcast
12:55 PM 46.4 °F 42.4 °F 37.4 °F 71% 29.86 in 6.2 mi South 8.1 mph - N/A   Overcast
1:00 PM 46 °F - 37 °F 60% 29.88 in 22 mi South 8.9 mph - -   Partly Cloudy
1:25 PM 46.4 °F 42.4 °F 35.6 °F 66% 29.86 in 6.2 mi South 8.1 mph - N/A   Overcast
1:55 PM 46.4 °F 41.5 °F 35.6 °F 66% 29.86 in 6.2 mi South 10.4 mph - N/A   Overcast
2:00 PM 46 °F - 36 °F 60% 29.88 in 22 mi South 8.9 mph - -   Scattered Clouds
2:25 PM 46.4 °F 41.5 °F 35.6 °F 66% 29.86 in - South 10.4 mph - N/A   Overcast
2:55 PM 46.4 °F 42.4 °F 37.4 °F 71% 29.86 in 6.2 mi SSW 8.1 mph - N/A   Overcast
3:00 PM 46 °F - 36 °F 60% 29.86 in 22 mi SSW 8.9 mph - -   Overcast
3:25 PM 44.6 °F 40.2 °F 37.4 °F 76% 29.86 in 6.2 mi SSW 8.1 mph - N/A   Overcast
3:55 PM 44.6 °F 40.7 °F 37.4 °F 76% 29.83 in 6.2 mi South 6.9 mph - N/A   Overcast
4:00 PM 44 °F - 37 °F 70% 29.86 in 19 mi South 6.7 mph - -   Overcast
4:25 PM 44.6 °F 40.7 °F 37.4 °F 76% 29.83 in 6.2 mi South 6.9 mph - N/A   Overcast
4:55 PM 44.6 °F 40.7 °F 37.4 °F 76% 29.83 in 6.2 mi South 6.9 mph - N/A   Overcast
5:00 PM 44 °F - 36 °F 66% 29.85 in 19 mi South 6.7 mph - -   Overcast
5:25 PM 42.8 °F 40.1 °F 37.4 °F 81% 29.83 in 6.2 mi South 4.6 mph - N/A   Overcast
5:55 PM 42.8 °F 39.3 °F 37.4 °F 81% 29.83 in 6.2 mi South 5.8 mph - N/A   Overcast
6:00 PM 43 °F - 37 °F 72% 29.85 in 17 mi South 4.5 mph - -   Overcast
6:25 PM 42.8 °F 40.1 °F 37.4 °F 81% 29.83 in 6.2 mi South 4.6 mph - N/A   Overcast
6:55 PM 42.8 °F - 37.4 °F 81% 29.83 in 6.2 mi SSE 1.2 mph - N/A   Overcast
7:00 PM 42 °F - 37 °F 75% 29.85 in 16 mi SSE 2.2 mph - -   Partly Cloudy
7:25 PM 42.8 °F 41.1 °F 37.4 °F 81% 29.83 in 6.2 mi South 3.5 mph - N/A   Overcast
7:55 PM 42.8 °F 38.6 °F 37.4 °F 81% 29.83 in 6.2 mi South 6.9 mph - N/A   Mostly Cloudy
8:00 PM 43 °F - 37 °F 74% 29.85 in 16 mi South 6.7 mph - -   Scattered Clouds
8:25 PM 42.8 °F 39.3 °F 37.4 °F 81% 29.83 in 6.2 mi South 5.8 mph - N/A   Mostly Cloudy
8:55 PM 42.8 °F 38.6 °F 37.4 °F 81% 29.83 in 6.2 mi South 6.9 mph - N/A   Overcast
9:00 PM 42 °F - 38 °F 79% 29.85 in 16 mi South 6.7 mph - -   Mostly Cloudy
9:25 PM 44.6 °F 40.2 °F 37.4 °F 76% 29.83 in 6.2 mi South 8.1 mph - N/A   Overcast
9:55 PM 44.6 °F 39.2 °F 37.4 °F 76% 29.83 in 6.2 mi South 10.4 mph - N/A   Overcast
10:00 PM 44 °F - 38 °F 71% 29.85 in 14 mi South 11.2 mph - -   Overcast
10:25 PM 44.6 °F 39.2 °F 37.4 °F 76% 29.83 in 6.2 mi SSW 10.4 mph - N/A   Overcast
10:55 PM 42.8 °F 37.0 °F 39.2 °F 87% 29.83 in 6.2 mi SSW 10.4 mph - N/A   Overcast
11:00 PM 44 °F - 38 °F 74% 29.85 in 14 mi SSW 8.9 mph - -   Overcast
11:25 PM 44.6 °F 39.2 °F 39.2 °F 81% 29.83 in 6.2 mi SSW 10.4 mph - N/A   Overcast
11:55 PM 44.6 °F 38.8 °F 41.0 °F 87% 29.83 in 6.2 mi SSW 11.5 mph - N/A   Drizzle